Content
SEND FEEDBACK

Daily
Averages
Monthly
Summary
United States of America

WATSONVILLE, CALIFORNIA


Home > North America > United States > California
Elevation: 10 feet     Latitude: 36 56N     Longitude: 121 46W

WEATHER
 
SELECT A DAY
Number of Records: 19,388;   Date Range: 9/2/12 - 7/29/14
 
SHARE

PRINT THIS DATA

[ ← Previous Day ]
WEATHER ALMANAC - JANUARY 23, 2013
[ Next Day → ]
[ °C ]   °F
Weather ElementAverageHighLow
Temperature53.3 °F60.1 °F (2:53 pm)48.9 °F (3:53 am)
Dewpoint40.7 °F46.9 °F (7:53 pm)35.1 °F (1:53 am)
Humidity63.8 %89 % (11:53 pm)49 % (10:53 am)
Barometer30.04 in30.09 in (6:53 pm)29.99 in (4:53 am)
Wind Speed2.7 mph5.8 mph (1:53 am)
Weather ElementAverage
Visibility10 mi
Wind DirectionSSE (162.6 °)

Weather ElementTotal
Precipitation0.01 in
Heating Degree Days10.5 (Base 65)
Growing Degree Days4.5 (Base 50)
Averaged from 23 records on January 23, 2013
WEATHER CONDITIONS BREAKOUT
WIND DIRECTION BREAKOUT
WEATHER BY HOUR - JANUARY 23, 2013
[ °C ]   °F
Local TimeTemperatureDewpointHumidityBarometerVisibilityWind DirectionWind SpeedGust SpeedPrecipitationEventsConditions
1:53 AM52.0 °F35.1 °F53 %30.03 in10.0 miWNW (290°)5.8 mphClear
2:53 AM50.0 °F36.0 °F59 %30.02 in10.0 miCalmClear
3:53 AM48.9 °F36.0 °F61 %30.01 in10.0 miWNW (300°)3.5 mphClear
4:53 AM50.0 °F35.1 °F57 %29.99 in10.0 miNNE (20°)3.5 mphClear
5:53 AM48.9 °F37.0 °F64 %29.99 in10.0 miCalmClear
6:53 AM48.9 °F37.0 °F64 %30.01 in10.0 miNW (320°)3.5 mphClear
7:53 AM50.0 °F36.0 °F59 %30.04 in10.0 miNNW (330°)4.6 mphClear
8:53 AM52.0 °F35.1 °F53 %30.04 in10.0 miNW (310°)4.6 mphClear
9:53 AM55.0 °F37.9 °F53 %30.05 in10.0 miEast (100°)3.5 mphMostly Cloudy
10:53 AM57.0 °F37.9 °F49 %30.05 in10.0 miNW (320°)3.5 mphOvercast
11:53 AM57.0 °F39.9 °F53 %30.04 in10.0 miCalm0.00 inRainLight Rain
12:53 PM59.0 °F41.0 °F51 %30.00 in10.0 miNW (320°)4.6 mph0.00 inRainLight Rain
1:53 PM57.9 °F41.0 °F53 %30.01 in10.0 miEast (100°)3.5 mph0.00 inOvercast
2:53 PM60.1 °F42.1 °F51 %30.00 in10.0 miCalmMostly Cloudy
3:53 PM57.9 °F44.1 °F60 %30.01 in10.0 miSSW (210°)4.6 mphMostly Cloudy
4:53 PM57.9 °F39.9 °F51 %30.03 in10.0 miWest (260°)3.5 mphOvercast
5:53 PM54.0 °F46.0 °F75 %30.06 in9.0 miSW (220°)3.5 mph0.00 inRainLight Rain
6:53 PM54.0 °F45.0 °F72 %30.09 in10.0 miNW (310°)5.8 mph0.00 inRainLight Rain
7:53 PM51.1 °F46.9 °F86 %30.07 in10.0 miCalm0.00 inOvercast
8:53 PM52.0 °F46.9 °F83 %30.08 in10.0 miCalm0.00 inRainLight Rain
9:53 PM51.1 °F46.9 °F86 %30.07 in10.0 miCalm0.01 inOvercast
10:53 PM51.1 °F46.9 °F86 %30.07 in10.0 miNNW (330°)4.6 mphOvercast
11:53 PM50.0 °F46.9 °F89 %30.05 in10.0 miCalmOvercast
Hourly data recorded from KWVI, located miles away from Watsonville, California







STORIES FROM OUR PARTNERS